Location: Champs
(48.8539°N, 2.6040°E)
Time: 17:56:52
(UTC+00:00)

Cosmos 2056 Rocket - Pass Details

Date: 07 June 2022
Orbit: 741 x 801 km, 74.0° (Epoch: 01 July)

Event Time Altitude Azimuth Distance (km) Brightness Sun altitude
Exits shadow 01:29:43 23° 203° (SSW) 1,583 4.5 -14.9°
Maximum altitude 01:33:03 89° 292° (WNW) 785 3.5 -14.7°
Drops below altitude 10° 01:38:26 10° 23° (NNE) 2,359 7.5 -14.3°
Sets 01:40:51 0° 24° (NNE) 3,300 8.8 -14.1°
